Location: Florida Caverns State Park
(30.8073°N, 85.2161°W)
Time: 23:57:04
(UTC-04:00)

ISS - Visible Passes

Search period start: 18 March 2019 00:00
Search period end: 28 March 2019 00:00
Orbit: 406 x 411 km, 51.6° (Epoch: 19 March)

Date Brightness Start Highest point End Pass type
(mag) Time Alt. Az. Time Alt. Az. Time Alt. Az.
18 Mar -2.4 05:59:03 37° E 05:59:03 37° E 06:01:20 10° ESE visible
18 Mar -2.2 20:55:50 10° S 20:57:41 20° SSE 20:57:41 20° SSE visible
19 Mar -2.1 06:44:09 18° SW 06:44:09 18° SW 06:45:53 10° S visible
19 Mar -2.2 21:40:40 10° WSW 21:42:57 35° W 21:42:57 35° W visible
20 Mar -3.9 20:49:33 10° SW 20:52:49 78° SE 20:55:12 17° NE visible
21 Mar -1.1 21:36:11 10° W 21:38:28 17° NW 21:40:02 13° N visible
22 Mar -2.0 20:44:18 10° WSW 20:47:17 31° NW 20:50:17 10° NNE visible
24 Mar -0.8 20:40:13 10° WNW 20:41:55 13° NW 20:43:38 10° N visible
